Volver al catálogo

SL-12 DEB

LostHEO
NORAD 45498·DEBRIS·🇷🇺 Russia

Lanzado Sep 2, 2010 desde Baikonur Cosmodrome

Loading…

Próximos Pases (próximas 24 horas)

TLE

ObsoletoSource: Space-Track

Época: Nov 5, 2021, 08:59 UTC

1 45498U 10041AU  21309.37496400  .00007025  00000-0  56061-2 0  9998
2 45498  64.7937 346.9637 5794604  14.6532 356.9075  4.25342580 51950

Sigue SL-12 DEB en tiempo real con AllMySat

Download on the App Store